Regional Weather Roundup
Issued by NWS

Home | Current Version | Previous Version | Graphics & Text | Print | Product List | Glossary On
Versions: 1 2 3 4 5 6 7 8 9 10 11 12 13 14 15 16 17 18 19 20 21 22 23 24 25 26 27 28 29 30 31 32 33 34 35 36 37 38 39 40 41 42 43 44 45 46 47 48 49 50
000
ASUS43 KFSD 270802
RWRSD

WEATHER ROUNDUP FOR SOUTH DAKOTA
NATIONAL WEATHER SERVICE SIOUX FALLS SD
300 AM CDT THU APR 27 2017

NOTE: "FAIR" INDICATES FEW OR NO CLOUDS BELOW 12,000 FEET WITH NO
SIGNIFICANT WEATHER AND/OR OBSTRUCTIONS TO VISIBILITY.


SDZ001>005-009-010-012>017-270900-
NORTHWEST AND NORTH CENTRAL SOUTH DAKOTA

CITY           SKY/WX    TMP DP  RH WIND       PRES   REMARKS
BUFFALO          N/A     28  23  81 E9        29.62S WCI  19
FAITH            N/A     28  25  88 SE8       29.71F WCI  20
MOBRIDGE       CLOUDY    32  24  72 CALM      29.71F
$$

SDZ012>016-024>037-041>051-057-063-072>074-270900-
SOUTHWEST AND SOUTH CENTRAL SOUTH DAKOTA

CITY           SKY/WX    TMP DP  RH WIND       PRES   REMARKS
RAPID CTY ARPT CLEAR     26  24  92 W3        29.67F
PIERRE         PTCLDY    23  20  88 CALM      29.72F
CUSTER         CLEAR     28  25  88 CALM      29.63F
ELLSWORTH AFB  CLEAR     31  30  96 SW5       29.66F WCI  27
PHILIP         CLEAR     26  24  92 CALM      29.72S
PINE RIDGE     CLEAR     25  23  92 NE6       29.67F WCI  18
WINNER         FAIR      25  21  85 SW5       29.71F WCI  19
$$

SDZ004>011-016>023-039-040-270900-
NORTHEAST SOUTH DAKOTA

CITY           SKY/WX    TMP DP  RH WIND       PRES   REMARKS
ABERDEEN       CLOUDY    29  23  78 N10       29.72F WCI  20
WATERTOWN      CLOUDY    27  23  85 N14       29.63S WCI  16
BROOKINGS      CLOUDY    28  24  85 N13G22    29.64S WCI  17
SISSETON         N/A     28  25  88 N18       29.66S WCI  15
$$

SDZ017-020-022-023-036>040-048>070-270900-
SOUTHEAST SOUTH DAKOTA

CITY           SKY/WX    TMP DP  RH WIND       PRES   REMARKS
SIOUX FALLS    CLOUDY    31  25  78 NW12      29.65F WCI  22
HURON          CLOUDY    30  24  78 N10       29.70F WCI  21
CHAMBERLAIN    CLOUDY    32  30  92 W3        29.73S
MITCHELL       CLOUDY    32  27  81 NW12      29.70F WCI  23
YANKTON        PTCLDY    30  25  80 NW9       29.68S WCI  22
$$

ABBREVIATIONS USED IN REMARKS
   TC - TEMPERATURE IN CELSIUS
  WCI - WIND CHILL INDEX
   HX - HEAT INDEX
  VSB - VISIBILITY





USA.gov is the U.S. government's official web portal to all federal, state and local government web resources and services.